Theta_e
296 297 299 300 299 301 301 302 302 300 299 299 299 299 299 299 300 300 300 299 299 297 296 295 294 295 295 295 295 295 295 294 293 293 291 291 290 290 291 290 290 290 290
291 294 294 296 298 297 298 300 301 302 302 300 299 298 298 298 299 299 299 299 298 298 296 294 294 294 294 294 295 295 295 294 294 293 291 290 290 289 290 290 290 290 290
289 289 289 292 292 296 297 295 296 300 300 300 300 298 297 296 296 298 299 298 298 298 298 297 294 293 293 293 294 294 295 294 293 293 291 290 289 288 289 289 289 289 289
288 288 288 288 288 289 290 294 295 295 296 298 299 297 297 296 296 295 295 297 298 297 296 297 296 295 293 292 293 294 294 294 293 292 290 289 288 288 288 288 288 289 289
286 286 286 286 287 287 287 287 289 291 295 295 295 298 297 297 295 295 294 294 295 296 297 297 296 295 294 293 293 293 293 293 292 291 290 289 288 288 289 289 288 289 289
286 286 286 286 286 286 286 286 286 287 288 292 296 295 297 299 297 295 293 294 293 293 294 295 296 296 294 292 291 292 293 293 293 292 291 291 290 288 288 289 289 289 287
285 285 285 285 285 285 285 285 286 285 285 286 287 289 294 295 297 294 292 292 291 291 292 293 294 295 295 293 291 291 291 291 291 292 292 292 290 289 288 289 289 288 287
285 284 285 285 285 285 285 285 285 285 285 285 285 285 287 292 294 295 292 291 292 292 291 291 293 293 294 293 291 290 290 290 289 289 288 288 288 288 287 287 287 286 285
284 284 284 284 284 284 285 285 285 285 285 285 285 285 285 286 290 294 290 291 290 291 292 289 291 290 292 290 290 290 290 289 288 288 287 286 285 285 285 285 285 284 284
281 281 281 282 283 283 283 284 284 284 284 284 285 285 285 285 286 291 292 289 289 288 290 288 287 288 288 288 288 288 288 289 288 287 286 285 284 284 285 285 283 283 282
279 279 278 278 278 279 280 282 282 283 283 284 284 284 285 285 285 285 292 290 289 287 287 286 286 286 285 285 285 286 287 287 287 287 286 284 283 282 284 283 283 281 281
276 276 275 275 275 274 274 276 277 278 280 282 282 283 284 284 284 285 286 293 289 286 286 286 285 285 285 285 284 284 284 284 286 285 283 283 282 286 284 282 280 280 279
273 273 272 271 271 271 270 271 271 273 274 277 277 279 282 284 284 284 285 288 291 286 286 286 285 285 284 283 283 283 283 283 284 284 282 282 284 287 282 279 278 278 279
269 269 268 267 267 267 267 267 268 269 271 272 274 277 279 280 282 284 284 285 289 287 286 286 285 284 284 283 283 283 282 283 283 283 282 282 285 280 280 279 278 278 278
265 264 264 264 264 264 265 265 266 267 268 269 271 274 278 279 280 281 282 284 286 288 285 285 284 283 283 282 282 283 281 280 280 280 280 284 280 279 279 278 276 277 276
263 263 263 263 263 263 263 264 265 266 268 269 271 273 274 276 279 280 281 281 282 284 284 283 281 282 284 282 282 282 280 279 279 279 283 281 279 279 278 277 276 276 276
263 263 263 263 263 263 263 263 264 264 266 267 269 271 274 276 279 281 281 282 281 282 283 283 282 281 283 281 282 281 278 279 280 280 280 279 279 277 276 276 276 275 275
264 264 263 263 263 263 263 263 263 264 264 266 268 271 274 277 280 281 282 282 282 282 283 281 281 281 282 281 280 279 279 280 281 280 280 279 277 277 278 276 274 274 274
263 263 264 264 264 264 264 264 264 264 265 265 267 269 273 275 277 278 281 283 282 282 283 280 280 280 281 280 279 279 280 280 281 280 279 278 277 277 274 274 275 274 273
263 264 265 265 265 265 265 265 265 265 265 266 267 270 274 275 276 279 282 283 282 282 283 280 280 280 280 280 279 279 279 280 280 279 278 277 275 274 275 274 273 272 272
264 265 266 266 266 267 267 267 268 267 267 268 270 272 274 275 276 278 281 282 282 281 281 280 279 279 280 280 279 278 279 279 279 278 276 274 274 275 273 272 272 272 271
265 266 267 267 268 269 270 270 271 270 271 271 272 273 274 275 276 278 280 281 281 281 280 280 279 280 280 280 279 278 278 278 277 276 275 274 274 272 272 272 271 271 271
266 267 268 268 269 270 271 271 271 272 272 273 273 274 274 276 277 279 280 280 280 280 279 279 279 279 279 278 277 276 277 276 276 275 275 274 273 272 271 271 271 270 270
267 267 268 269 269 270 270 271 272 272 273 273 273 274 275 276 277 278 278 278 278 277 277 277 277 277 277 276 275 274 275 275 274 274 273 272 271 270 270 270 270 269 269
268 268 268 268 269 270 270 270 271 271 272 272 272 273 273 274 275 276 276 276 275 275 275 275 275 275 275 274 274 274 274 274 274 273 272 270 270 270 270 270 269 269 268
269 268 268 268 269 270 270 270 270 271 271 271 271 272 272 273 274 274 274 274 274 274 274 273 273 273 273 273 273 273 273 273 271 270 270 270 269 269 269 269 269 268 268
Wind_Speed
24 24 23 25 26 25 21 18 19 22 22 24 27 30 34 39 45 52 56 58 57 56 57 56 53 52 49 46 42 38 36 32 29 27 27 27 27 25 20 16 13 11 13
29 26 24 23 23 25 26 24 22 20 23 27 28 32 34 37 41 47 53 60 61 59 59 57 57 56 54 50 47 44 40 36 34 32 30 30 30 27 23 20 15 14 14
27 29 29 26 24 22 25 28 26 25 25 22 24 31 33 38 41 44 47 55 62 60 59 59 58 59 57 56 52 48 44 41 38 36 33 33 32 29 27 23 19 15 16
30 28 31 31 31 30 26 22 25 27 27 28 27 27 28 31 38 43 48 50 55 59 62 60 59 61 61 61 56 53 49 46 44 41 38 35 34 32 29 26 22 18 18
32 33 32 31 31 32 33 32 28 25 26 29 29 31 30 32 35 39 44 49 52 56 60 62 62 63 63 64 61 59 55 51 48 45 43 39 37 36 34 30 26 21 20
29 31 34 38 38 35 36 36 35 35 33 30 31 31 32 33 36 38 37 41 47 54 59 61 62 64 67 66 65 61 58 56 54 50 46 44 41 39 35 31 27 22 20
28 28 32 37 40 41 40 40 38 39 38 36 35 33 32 33 31 34 35 37 39 47 55 58 61 64 67 68 67 63 61 58 54 51 49 46 43 40 36 33 29 25 21
34 36 37 37 40 42 44 44 44 44 43 43 41 38 38 39 33 29 31 35 40 43 49 55 59 62 66 69 69 67 66 61 58 53 48 43 39 37 34 31 27 24 22
43 41 42 42 42 42 44 46 48 50 50 49 48 45 42 42 41 34 28 31 40 45 46 52 56 62 65 66 68 69 67 65 60 55 50 46 42 38 34 32 30 27 24
46 48 48 48 48 49 49 49 50 51 55 55 54 52 48 46 42 41 32 31 38 44 45 51 55 59 58 61 60 65 69 69 63 57 50 47 43 40 37 35 31 27 24
44 50 51 52 55 59 59 58 57 57 57 58 60 58 55 49 45 42 40 34 37 41 45 49 54 55 52 55 49 58 67 65 62 55 50 48 44 40 37 40 33 28 25
48 52 55 55 55 56 57 62 62 60 59 60 60 63 60 55 49 44 41 41 36 39 44 48 48 49 47 50 45 51 53 56 57 54 53 50 47 39 42 37 32 27 25
57 60 57 53 52 50 48 50 46 52 52 57 52 51 59 56 52 46 44 40 38 41 45 51 47 45 37 39 43 52 48 54 54 55 55 51 43 43 41 34 29 27 25
55 56 52 47 47 44 42 40 40 41 41 42 41 42 44 42 50 45 45 41 36 36 42 49 46 39 35 40 43 48 47 51 56 57 53 46 41 43 36 32 30 26 24
46 46 44 42 41 41 40 40 39 40 39 41 41 37 37 39 40 33 35 37 32 33 38 47 46 42 35 40 45 51 47 50 50 49 47 45 44 38 35 33 28 26 23
43 41 40 41 42 42 42 44 39 39 40 42 45 46 51 49 42 36 32 30 26 23 37 44 43 43 38 44 46 49 49 50 48 47 45 43 41 37 34 31 28 24 24
39 40 40 40 40 41 41 41 43 41 35 37 37 39 42 46 42 39 35 32 28 24 43 45 42 42 39 43 43 49 49 49 46 45 43 42 38 36 32 28 26 25 22
37 39 41 40 40 40 40 41 40 39 39 38 30 26 27 30 29 34 34 32 30 29 42 42 40 39 39 46 47 48 47 46 42 43 42 41 40 39 34 30 26 21 18
38 40 40 40 41 41 41 42 40 39 37 38 34 28 22 21 24 28 27 35 31 31 36 42 38 37 40 42 46 48 49 46 43 42 42 42 39 33 30 26 23 20 18
35 35 36 38 39 40 39 37 36 35 33 32 31 23 16 19 18 18 25 34 29 28 30 36 36 38 41 42 45 46 48 47 44 43 41 37 31 30 26 21 20 17 15
32 35 32 32 33 35 35 35 34 30 28 24 23 18 18 19 19 14 16 30 26 23 31 37 37 36 32 38 40 43 44 46 43 39 35 32 27 23 20 19 17 16 14
28 27 27 27 27 27 29 29 26 23 22 22 21 20 16 15 15 12 15 22 23 22 25 33 32 31 31 35 36 36 40 39 37 35 31 25 22 20 19 18 16 14 13
23 23 23 23 22 21 21 18 18 19 18 16 14 13 11 6 6 11 15 18 17 16 15 20 27 28 28 27 25 27 32 34 33 28 24 22 20 19 18 16 14 12 12
21 20 20 21 21 21 20 19 17 14 12 10 8 6 3 2 8 12 12 12 12 14 18 20 22 22 19 18 20 23 25 25 23 21 18 17 18 18 16 15 13 12 12
21 20 20 20 21 21 21 20 18 17 15 13 10 8 6 8 10 8 8 10 13 16 19 19 18 18 20 25 27 26 24 21 18 16 16 18 18 16 14 13 12 12 14
24 22 21 21 21 21 22 21 20 19 17 16 13 12 11 12 13 13 15 17 19 21 21 22 23 23 24 23 21 19 17 16 16 17 17 16 14 13 12 10 10 12 15
Wind_Direction
8 2 358 358 358 3 355 331 310 299 291 282 276 270 267 261 253 246 244 242 238 236 235 234 232 231 230 229 228 229 230 229 227 228 222 223 220 222 230 231 239 253 268
358 355 357 354 351 352 351 350 344 319 298 289 279 270 265 262 260 253 246 245 241 236 237 236 234 232 230 230 229 229 231 231 230 231 226 223 222 226 230 233 240 248 263
353 351 348 348 348 345 342 342 341 335 333 312 286 277 272 267 261 258 255 250 247 244 239 238 237 237 233 230 228 228 228 230 231 231 227 225 226 226 229 233 239 246 260
345 344 343 343 344 343 341 333 330 332 331 328 324 299 278 273 267 262 259 254 252 248 245 241 239 240 238 235 231 230 229 227 228 226 226 226 226 226 227 233 237 241 253
335 336 336 334 334 334 333 334 332 326 319 320 320 319 309 287 275 270 264 260 256 254 250 246 241 241 240 239 236 233 230 227 226 225 225 224 225 226 228 232 235 240 251
322 322 324 325 327 329 328 326 326 326 324 314 301 307 306 306 292 277 271 266 262 256 252 249 245 242 241 239 237 236 237 233 229 226 227 229 228 230 230 231 238 244 246
311 310 314 316 317 318 320 321 322 322 321 320 316 308 297 297 300 288 272 266 264 261 257 253 250 247 244 240 238 236 235 235 236 240 234 234 231 231 231 232 235 241 243
305 302 304 306 306 308 310 312 313 313 314 313 313 310 305 296 292 294 276 265 262 259 260 255 253 251 249 243 237 234 234 232 231 231 232 236 236 234 232 233 235 235 236
306 304 303 302 299 299 300 302 304 305 305 305 305 306 304 297 294 288 282 268 261 257 255 258 253 251 250 246 240 235 233 231 229 229 228 228 227 230 228 229 228 228 233
309 306 304 301 298 296 294 293 294 295 298 299 298 297 298 297 295 289 280 268 262 258 256 254 251 251 249 248 244 238 234 230 226 224 223 225 226 228 230 233 229 225 229
304 302 300 298 298 296 296 293 291 290 289 289 291 291 290 290 291 287 281 266 263 255 246 245 247 243 239 241 236 240 239 233 227 225 223 221 221 220 228 229 227 226 228
300 297 296 295 293 293 293 292 291 289 287 284 284 285 286 286 289 286 281 275 263 249 244 243 243 244 243 239 227 229 230 228 227 221 218 217 217 223 228 224 224 226 229
298 296 295 293 291 290 288 288 286 287 286 284 283 281 281 281 283 284 280 274 269 243 241 243 242 246 235 220 216 223 226 226 225 218 216 215 218 229 221 219 222 225 230
299 298 297 295 293 290 286 282 281 279 278 276 275 273 274 274 276 276 275 275 268 256 237 243 239 240 233 227 214 213 217 223 221 219 215 215 221 216 213 218 220 224 232
305 301 299 296 294 292 286 283 279 275 272 274 271 269 270 269 267 271 271 271 268 258 238 234 229 225 227 213 212 207 211 214 212 210 207 216 211 208 209 213 217 224 230
304 301 298 296 294 292 290 288 284 278 275 271 269 267 268 263 266 265 262 264 259 249 230 220 216 220 220 206 203 201 203 207 208 207 212 210 207 205 204 207 215 225 234
306 306 302 296 292 290 288 287 288 291 284 278 272 267 263 262 260 257 261 257 257 237 225 221 217 215 215 202 200 200 194 207 210 209 206 205 203 202 204 208 218 225 230
314 312 308 301 295 292 289 287 286 286 288 289 286 271 265 262 255 249 251 253 249 229 222 215 214 215 208 200 201 199 200 200 203 203 202 202 198 204 204 207 214 222 236
315 312 309 306 303 299 294 289 285 284 283 285 293 292 262 263 259 260 242 234 243 232 220 212 213 208 206 198 201 205 205 201 206 201 203 202 202 201 201 205 216 226 235
315 311 312 309 306 303 299 291 286 283 283 283 288 292 296 283 279 263 232 226 236 234 220 205 204 201 206 211 207 208 205 205 204 204 203 201 196 200 209 211 216 224 240
320 319 322 318 314 312 310 302 302 299 296 293 291 299 286 285 287 268 246 222 231 230 211 205 201 204 216 216 213 211 207 206 205 204 200 195 199 201 202 210 220 231 243
326 329 333 333 333 331 321 315 313 309 309 310 312 301 297 282 265 260 228 208 219 230 219 211 212 216 219 221 219 215 209 205 201 196 193 192 194 198 209 215 223 236 253
343 344 348 350 349 347 346 342 334 325 319 310 309 312 309 310 265 232 222 222 230 233 219 209 210 208 210 214 215 213 203 195 192 190 187 189 195 204 210 217 228 244 265
358 0 1 3 5 5 5 3 1 357 352 344 344 337 324 186 182 182 193 193 193 185 184 186 190 192 192 194 185 179 177 175 176 180 185 189 200 208 213 222 235 251 274
16 17 18 18 19 21 22 24 25 23 23 27 36 47 74 115 122 127 146 155 161 160 159 162 161 157 157 159 162 165 168 169 175 179 183 193 202 209 216 228 244 267 288
32 32 34 35 35 34 34 36 36 35 37 43 53 69 87 97 100 109 118 125 130 132 133 134 136 141 147 150 153 158 163 169 175 184 190 198 206 214 227 245 257 279 296